Location: Kergonan
(48.2337°N, 4.5518°W)
Time: 10:48:19
(UTC+00:00)

Cosmos 1626 Rocket - Pass Details

Date: 18 January 2020
Orbit: 603 x 631 km, 82.5° (Epoch: 16 February)

Event Time Altitude Azimuth Distance (km) Brightness Sun altitude
Exits shadow 05:47:03 34° 205° (SSW) 1,008 4.4 -22.0°
Drops below altitude 10° 05:49:39 10° 188° (S) 1,956 6.1 -21.6°
Sets 05:51:54 0° 184° (S) 2,859 7.0 -21.2°
